Regional Weather Roundup
Issued by NWS

Home | Current Version | Previous Version | Text Only | Print | Product List | Glossary Off
Versions: 1 2 3 4 5 6 7 8 9 10 11 12 13 14 15 16 17 18 19 20 21 22 23 24 25 26 27 28 29 30 31 32 33 34 35 36 37 38 39 40 41 42 43 44 45 46 47 48 49 50

000
ASUS43 KMKX 211911
RWRWI

WISCONSIN REGIONAL WEATHER ROUNDUP
NATIONAL WEATHER SERVICE MILWAUKEE/SULLIVAN WI
200 PM CDT THU AUG 21 2014

NOTE: "FAIR" INDICATES FEW OR NO CLOUDS BELOW 12,000 FEET WITH NO
SIGNIFICANT WEATHER AND/OR OBSTRUCTIONS TO VISIBILITY.

WIZ001-002-006>008-014>016-023>028-212000-
NORTHWEST WISCONSIN

CITY           SKY/WX    TMP DP  RH WIND       PRES   REMARKS
SUPERIOR ARPT  CLOUDY    63  61  94 NE13G21   29.88S
ASHLAND        CLOUDY    70  64  81 NE10      29.90R
HAYWARD        CLOUDY    72  69  90 E6        29.87S
SIREN          CLOUDY    73  69  86 SE5       29.84S
RICE LAKE      RAIN      73  68  84 E3        29.86S
LADYSMITH      CLOUDY    76  67  75 SE8       29.90R
EAU CLAIRE     PTSUNNY   77  69  76 SE13      29.83S
MENOMONIE      CLOUDY    77  69  76 E9G16     29.82S
NEW RICHMOND   CLOUDY    73  70  89 E8        29.82S
OSCEOLA        CLOUDY    73  71  93 E10       29.84R
$$

WIZ003>005-009-010-017-018-212000-
NORTH CENTRAL WISCONSIN

CITY           SKY/WX    TMP DP  RH WIND       PRES   REMARKS
WOODRUFF       CLOUDY    72  65  80 SE9G16    29.93F
RHINELANDER    CLOUDY    69  64  84 SE10      29.94F
EAGLE RIVER    CLOUDY    69  63  81 SE7       29.95F
LAND O LAKES   CLOUDY    68  63  82 S6        29.96F
PHILLIPS       CLOUDY    67  65  93 SE8       29.91S
TOMAHAWK       CLOUDY    67  65  91 E5        29.93S
MEDFORD        CLOUDY    69  66  91 SE8       29.90S
MERRILL        CLOUDY    67  65  94 SE9       29.92S
$$

WIZ029-030-035-036-043>047-212000-
CENTRAL WISCONSIN

CITY           SKY/WX    TMP DP  RH WIND       PRES   REMARKS
WAUSAU         CLOUDY    67  65  93 E8        29.89F
MOSINEE        CLOUDY    70  68  94 E9        29.91F
MARSHFIELD     PTSUNNY   78  70  76 S9        29.89R HX  80
STEVENS POINT  CLOUDY    67  65  92 E8        29.91R
WAUPACA        CLOUDY    71  69  93 SE5       29.92S FOG
WAUTOMA        CLOUDY    72  69  90 S10       29.93R
WISC RAPIDS    PTSUNNY   77  69  76 S8        29.91R
CAMP DOUGLAS   MOSUNNY   75  75 100 SE9       29.89F
$$

WIZ011>013-019>022-031-037>040-048>050-212000-
NORTHEAST WISCONSIN

CITY           SKY/WX    TMP DP  RH WIND       PRES   REMARKS
ANTIGO         CLOUDY    65  64  96 SE13G18   29.94F FOG
STURGEON BAY   CLOUDY    66  61  82 SE7       29.98F
GREEN BAY      LGT RAIN  68  65  90 E9        29.95F
MANITOWOC      TSTM      66  64  93 E8        29.97F
APPLETON       CLOUDY    68  66  94 E9        29.93F
CLINTONVILLE   CLOUDY    68  66  94 E8        29.92F
OSHKOSH        CLOUDY    71  69  93 SE10      29.91S
$$

WIZ032>034-041-042-053>061-212000-
SOUTHWEST WISCONSIN

CITY           SKY/WX    TMP DP  RH WIND       PRES   REMARKS
LA CROSSE      CLOUDY    78  70  76 SE10      29.84S HX  80
SPARTA         CLOUDY    78  67  71 SE9G16    29.88S
VIROQUA        MOCLDY    76  74  93 SE8       29.88F
BOSCOBEL       PTSUNNY   79  71  76 S9        29.87R HX  82
PRAIRIE DU CHI CLOUDY    76  71  83 SE8       29.86R
PLATTEVILLE    CLOUDY    75  73  94 S14       29.93R
$$

WIZ056-057-062-063-064-067-068-212000-
SOUTH CENTRAL WISCONSIN

CITY           SKY/WX    TMP DP  RH WIND       PRES   REMARKS
BARABOO/DELLS  CLOUDY    74  69  85 SE10      29.90F
LONE ROCK      CLOUDY    82  73  74 SE12      29.88F HX  87
WATERTOWN      CLOUDY    71  71 100 E6        29.94F
MADISON        LGT RAIN  74  70  87 SE12      29.92F
MIDDLETON      CLOUDY    74  73  98 SE13      29.92F
MONROE         RAIN      72  70  94 SE9       29.94F
JANESVILLE     LGT RAIN  73  70  88 CALM      29.95R
$$

WIZ051-052-058>065-066-070>072-212000-
SOUTHEAST WISCONSIN

CITY           SKY/WX    TMP DP  RH WIND       PRES   REMARKS
MILWAUKEE      LGT RAIN  70  68  93 E10       29.93F FOG
WAUKESHA       CLOUDY    70  68  94 E5        29.97F FOG
MILWAUKEE/TIMM LGT RAIN  68  66  94 NE5       29.98F FOG
RACINE         LGT RAIN  71  69  93 E7        29.95F FOG
BURLINGTON     CLOUDY    72  70  96 SW3       29.97R
KENOSHA        LGT RAIN  72  71  97 E9        29.95F
FOND DU LAC    CLOUDY    71  67  87 SE9       29.92F
SHEBOYGAN      LGT RAIN  67  65  93 E7        29.94F FOG
WEST BEND      LGT RAIN  68  64  88 SE6       29.95F
JUNEAU         DRIZZLE   70  44  38 SE10      29.95F
$$

LSZ147-162-212000-
LAKE SUPERIOR

STATION/POSITION TIME  TEMP    WIND        PRES    WAVE
                       AIR SEA DIR/SP/G            HT/PER
                 (UTC) (F)     (DEG/KT/KT) (MB)    (FT/S)
W MID LAKE BUOY  1850   59 60   60/ 12/ 12 1013.6R   1/ 3
PORT WING        1800   66      40/ 16/ 18 1011.9
SAXON HARBOR     1800   66      50/ 12/ 13 1011.9F
$$

LMZ867-665-643>646-212000-
LAKE MICHIGAN

STATION/POSITION TIME  TEMP    WIND        PRES    WAVE
                       AIR SEA DIR/SP/G            HT/PER
                 (UTC) (F)     (DEG/KT/KT) (MB)    (FT/S)
N MID LAKE BUOY  1750   65 65  110/  4/  6 1014.7F   0
NORTHPORT PIER   1800   65     140/  7/  9 1015.2S
SISTER BAY       1841   73     150/  7/ 10   N/A
ALGOMA LAKESHORE 1823             CALM       N/A
KEWAUNEE LAKESHO 1800   66     100/  1/  3 1014.4R
SHEBOYGAN LAKESH 1900   66 67  100/ 10/ 11 1013.9F
ATWATER BUOY     1800   69     310/  8/  8 1017.4R
MILWAUKEE LAKESH 1800   70     300/  3/  5   N/A
S MID LAKE BUOY  1850   69 68  310/  4/  4 1015.9R   0
KENOSHA   LAKESH 1900   71      70/ 12/ 13 1013.2F
$$

TC  - TEMPERATURE IN CELSIUS
VSB - VISIBILITY IN STATUTE MILES
WCI - WIND CHILL INDEX
HX  - HEAT INDEX



USA.gov is the U.S. government's official web portal to all federal, state and local government web resources and services.